OPS 4682 DEB, 38414

Orbit data source: Space-Track

OPS 4682 DEB, 38414 is space debris in LEO originally from a launch on Sat, 03 Apr 1965 UTC launched from the Air Force Western Test Range (AFWTR). Debris objects in space refer to the collection of defunct objects orbiting the Earth. Examples of debris include non-operational satellites, rocket bodies, and fragments generated from explosions, collisions, or faulty payload assembly.

Loading next visibility...
Identifier
38414, 1965-027DT
Orbit
LEO
Country
Flag of USUS
Related business
Manufacturer
Unknown
Mission
Spacecraft
Bus & Motor
Unknown
Mass
Unknown
Launch date (UTC)
1965-04-03 (61 years ago)
Launch vehicle
Unknown
Launch site
Air Force Western Test Range (AFWTR)
Object type
Payload
Rocket body
Debris
Shape & HBR
Unknown shape, 0.1 m
Radar Cross Section
Small (<0.1 m²)

Expand to show TLE details & history
Last TLE update: 2 weeks ago

TLE from 2 weeks ago
0 OPS 4682 DEB
1 38414U 65027DT  25339.78100067  .00000822  00000-0  27787-2 0  9996
2 38414  90.2323 348.2388 0038342 259.1143 100.5662 12.97978231115716
Epoch: 2025-12-05T18:44Z
TLE epoch observation values (Epoch: 2025-12-05T18:44:38.457Z)
Latitude
-0.00007°
Longitude
-7.73961°
Altitude
1,278.386 km
Speed
7.214 km/s
True Right ascension
23h 12m 57s
True Declination
0° 00' 00"
Sunlit
Object was in daylight at epoch
Visualization orbit readout
Latitude
Unknown
Longitude
Unknown
Altitude
Unknown
Speed
Unknown
Apparent Right ascension
Unknown
Apparent Declination
Unknown
Sunlit
N/A
Visualization observer readout
Local Sidereal Time
10:51:58
Azimuth
Unknown
Elevation
Unknown
Doppler factor
Unknown
Orbital elements
Apogee altitude
1,296.462 km
Perigee altitude
1,237.835 km
Semi-major axis
7,645.285 km
Eccentricity
0.00383
Inclination
90.2323°
RAAN
348.2388°
Arg. of periapsis
259.1143°
True anomaly
100.99773°
Mean anomaly
100.5662°
Eccentric anomaly
100.78201°
Mean motion
3.24678 °/min
Orbital period
110.88 mins
BSTAR
0.0027787
Loading maneuver chart data...
Computing Atmospheric mass density...
Loading historical data...
Loading historical data...
Loading historical data...
Loading historical data...
Loading historical data...
Loading historical data...
Loading historical data...

Documentation

Showing up to 5 results
|